EN

Hourly Weather Alvaraes

Today, 20 January, Wednesday

Time Temperature Precipitation Wind Pressure Humidity
00:00 +22°C° 0.2 mm 0 mps 753 mmHg 98%
01:00 +22°C° 0.2 mm 0 mps 753 mmHg 98%
02:00 +22°C° 0.2 mm 0 mps 752 mmHg 98%
03:00 +22°C° 0.1 mm 0 mps 752 mmHg 98%
04:00 +22°C° 0.1 mm 0 mps 752 mmHg 98%
05:00 +22°C° 0.1 mm 0 mps 752 mmHg 97%
06:00 +22°C° 0.2 mm 0 mps 752 mmHg 97%
07:00 +22°C° 0.2 mm 0 mps 753 mmHg 97%
08:00 +23°C° 0.2 mm 0 mps 753 mmHg 97%
09:00 +23°C° 0.1 mm 0 mps 754 mmHg 94%
10:00 +24°C° 0.1 mm 0 mps 754 mmHg 92%
11:00 +24°C° 0.1 mm 0 mps 754 mmHg 89%
12:00 +25°C° 0.4 mm 0 mps 753 mmHg 89%
13:00 +27°C° 0.4 mm 1 mps 753 mmHg 89%
14:00 +27°C° 0.4 mm 1 mps 752 mmHg 88%
15:00 +28°C° 0.4 mm 1 mps 751 mmHg 85%
16:00 +29°C° 0.4 mm 1 mps 751 mmHg 82%
17:00 +29°C° 0.4 mm 1 mps 751 mmHg 78%
18:00 +28°C° 0.1 mm 1 mps 751 mmHg 84%
19:00 +27°C° 0.1 mm 1 mps 752 mmHg 90%
20:00 +25°C° 0.1 mm 1 mps 752 mmHg 96%
21:00 +25°C° 0 mm 1 mps 752 mmHg 96%
22:00 +25°C° 0 mm 1 mps 753 mmHg 96%
23:00 +22°C° 0 mm 0 mps 753 mmHg 96%

Tomorrow, 21 January, Thursday

Time Temperature Precipitation Wind Pressure Humidity
00:00 +22°C° 0 mm 0 mps 753 mmHg 96%
01:00 +22°C° 0 mm 0 mps 752 mmHg 95%
02:00 +22°C° 0 mm 0 mps 752 mmHg 95%
03:00 +22°C° 0 mm 0 mps 752 mmHg 95%
04:00 +22°C° 0 mm 0 mps 752 mmHg 96%
05:00 +22°C° 0 mm 0 mps 752 mmHg 96%
06:00 +22°C° 0 mm 0 mps 753 mmHg 95%
07:00 +22°C° 0 mm 0 mps 753 mmHg 93%
08:00 +23°C° 0 mm 0 mps 754 mmHg 92%
09:00 +25°C° 0 mm 0 mps 754 mmHg 81%
10:00 +27°C° 0 mm 0 mps 754 mmHg 71%
11:00 +30°C° 0 mm 0 mps 754 mmHg 60%
12:00 +31°C° 0.5 mm 1 mps 753 mmHg 65%
13:00 +31°C° 0.5 mm 1 mps 753 mmHg 70%
14:00 +31°C° 0.5 mm 1 mps 752 mmHg 75%
15:00 +30°C° 1.4 mm 1 mps 751 mmHg 81%
16:00 +29°C° 1.4 mm 1 mps 751 mmHg 86%
17:00 +29°C° 1.4 mm 1 mps 751 mmHg 91%
18:00 +27°C° 1.1 mm 1 mps 751 mmHg 93%
19:00 +26°C° 1.1 mm 1 mps 752 mmHg 95%
20:00 +25°C° 1.1 mm 1 mps 753 mmHg 97%
21:00 +25°C° 0.2 mm 1 mps 753 mmHg 97%
22:00 +25°C° 0.2 mm 1 mps 753 mmHg 98%
23:00 +24°C° 0.2 mm 1 mps 754 mmHg 98%

Day after tomorrow, 22 January, Friday

Time Temperature Precipitation Wind Pressure Humidity
00:00 +24°C° 0 mm 1 mps 753 mmHg 98%
01:00 +22°C° 0 mm 0 mps 753 mmHg 99%
02:00 +22°C° 0 mm 0 mps 752 mmHg 99%
03:00 +22°C° 0 mm 0 mps 752 mmHg 99%
04:00 +22°C° 0 mm 0 mps 752 mmHg 99%
05:00 +22°C° 0 mm 0 mps 752 mmHg 99%
06:00 +22°C° 0.1 mm 0 mps 753 mmHg 99%
07:00 +22°C° 0.1 mm 0 mps 753 mmHg 98%
08:00 +22°C° 0.1 mm 0 mps 754 mmHg 98%
09:00 +25°C° 0.5 mm 1 mps 754 mmHg 95%
10:00 +26°C° 0.5 mm 1 mps 754 mmHg 93%
11:00 +27°C° 0.5 mm 1 mps 755 mmHg 90%
12:00 +28°C° 1 mm 1 mps 754 mmHg 86%
13:00 +30°C° 1 mm 1 mps 753 mmHg 82%
14:00 +31°C° 1 mm 1 mps 752 mmHg 77%
15:00 +30°C° 1.7 mm 1 mps 752 mmHg 82%
16:00 +30°C° 1.7 mm 1 mps 751 mmHg 87%
17:00 +27°C° 1.7 mm 0 mps 750 mmHg 92%
18:00 +26°C° 0.4 mm 0 mps 751 mmHg 94%
19:00 +25°C° 0.4 mm 0 mps 751 mmHg 95%
20:00 +24°C° 0.4 mm 0 mps 752 mmHg 97%
21:00 +24°C° 0.5 mm 0 mps 752 mmHg 97%
22:00 +23°C° 0.5 mm 0 mps 753 mmHg 97%
23:00 +23°C° 0.5 mm 0 mps 753 mmHg 98%

23 January, Saturday

Time Temperature Precipitation Wind Pressure Humidity
00:00 +23°C° 1.4 mm 0 mps 753 mmHg 97%
01:00 +23°C° 1.4 mm 0 mps 753 mmHg 97%
02:00 +23°C° 1.4 mm 0 mps 752 mmHg 97%
03:00 +23°C° 2.8 mm 0 mps 752 mmHg 98%
04:00 +22°C° 2.8 mm 0 mps 752 mmHg 98%
05:00 +22°C° 2.8 mm 0 mps 752 mmHg 99%
06:00 +22°C° 1 mm 0 mps 753 mmHg 99%
07:00 +23°C° 1 mm 0 mps 754 mmHg 98%
08:00 +23°C° 1 mm 0 mps 754 mmHg 98%
09:00 +23°C° 1.4 mm 0 mps 754 mmHg 98%
10:00 +23°C° 1.4 mm 0 mps 754 mmHg 98%
11:00 +23°C° 1.4 mm 0 mps 754 mmHg 98%
12:00 +25°C° 0.1 mm 0 mps 754 mmHg 91%
13:00 +26°C° 0.1 mm 0 mps 753 mmHg 85%
14:00 +29°C° 0.1 mm 1 mps 752 mmHg 78%
15:00 +29°C° 1.1 mm 1 mps 752 mmHg 84%
16:00 +28°C° 1.1 mm 1 mps 751 mmHg 89%
17:00 +27°C° 1.1 mm 1 mps 751 mmHg 95%
18:00 +26°C° 0.2 mm 1 mps 751 mmHg 96%
19:00 +24°C° 0.2 mm 0 mps 751 mmHg 97%
20:00 +23°C° 0.2 mm 0 mps 752 mmHg 98%
21:00 +23°C° 0 mm 0 mps 752 mmHg 98%
22:00 +23°C° 0 mm 0 mps 753 mmHg 98%
23:00 +23°C° 0 mm 0 mps 753 mmHg 98%

24 January, Sunday

Time Temperature Precipitation Wind Pressure Humidity
00:00 +22°C° 0 mm 0 mps 753 mmHg 98%
01:00 +22°C° 0 mm 0 mps 753 mmHg 98%
02:00 +22°C° 0 mm 0 mps 752 mmHg 98%
03:00 +22°C° 0.1 mm 0 mps 752 mmHg 98%
04:00 +22°C° 0.1 mm 0 mps 752 mmHg 98%
05:00 +22°C° 0.1 mm 0 mps 752 mmHg 98%
06:00 +23°C° 0 mm 0 mps 752 mmHg 97%
07:00 +23°C° 0 mm 0 mps 753 mmHg 96%
08:00 +24°C° 0 mm 0 mps 753 mmHg 95%
09:00 +24°C° 0.9 mm 0 mps 753 mmHg 95%
10:00 +24°C° 0.9 mm 0 mps 753 mmHg 95%
11:00 +27°C° 0.9 mm 1 mps 753 mmHg 95%
12:00 +29°C° 0.2 mm 1 mps 753 mmHg 83%
13:00 +31°C° 0.2 mm 1 mps 752 mmHg 72%
14:00 +33°C° 0.2 mm 1 mps 751 mmHg 60%
15:00 +31°C° 0 mm 0 mps 750 mmHg 61%
16:00 +30°C° 0 mm 0 mps 750 mmHg 62%
17:00 +30°C° 0 mm 0 mps 749 mmHg 63%
18:00 +28°C° 0 mm 0 mps 749 mmHg 71%
19:00 +26°C° 0 mm 0 mps 750 mmHg 79%
20:00 +24°C° 0 mm 0 mps 751 mmHg 87%
21:00 +24°C° 0 mm 0 mps 751 mmHg 89%
22:00 +24°C° 0 mm 0 mps 751 mmHg 91%
23:00 +23°C° 0 mm 0 mps 752 mmHg 93%

25 January, Monday

Time Temperature Precipitation Wind Pressure Humidity
00:00 +23°C° 0.6 mm 0 mps 752 mmHg 94%
01:00 +23°C° 0.6 mm 0 mps 751 mmHg 96%
02:00 +23°C° 0.6 mm 0 mps 751 mmHg 97%
03:00 +23°C° 1.2 mm 0 mps 751 mmHg 97%
04:00 +22°C° 1.2 mm 0 mps 751 mmHg 98%
05:00 +22°C° 1.2 mm 0 mps 751 mmHg 98%
06:00 +23°C° 0.3 mm 0 mps 752 mmHg 98%
07:00 +23°C° 0.3 mm 0 mps 752 mmHg 97%
08:00 +24°C° 0.3 mm 0 mps 753 mmHg 97%
09:00 +25°C° 1.4 mm 0 mps 753 mmHg 95%
10:00 +28°C° 1.4 mm 1 mps 753 mmHg 93%
11:00 +28°C° 1.4 mm 1 mps 753 mmHg 91%
12:00 +29°C° 1.8 mm 1 mps 752 mmHg 88%
13:00 +30°C° 1.8 mm 1 mps 751 mmHg 85%
14:00 +31°C° 1.8 mm 1 mps 750 mmHg 82%
15:00 +31°C° 1.1 mm 1 mps 749 mmHg 81%
16:00 +28°C° 1.1 mm 0 mps 749 mmHg 81%
17:00 +28°C° 1.1 mm 0 mps 749 mmHg 80%
18:00 +27°C° 1 mm 0 mps 749 mmHg 85%
19:00 +25°C° 1 mm 0 mps 750 mmHg 90%
20:00 +24°C° 1 mm 0 mps 750 mmHg 95%
21:00 +24°C° 1.5 mm 0 mps 751 mmHg 95%
22:00 +23°C° 1.5 mm 0 mps 751 mmHg 96%
23:00 +23°C° 1.5 mm 0 mps 752 mmHg 97%
Show more